User: anonymous   Login
Location: Elstree
(51.6403°N, 0.2969°W)
Time: 14:49:55
(UTC+00:00)
Language:

MOS 1 - Orbit

View from above orbital plane
View from above orbital plane
View from above satellite
View from above satellite

Ground track
Ground track

The orbit data is extracted from the following two-line orbital elements,

1 17527U 87018A   21129.15776382  .00000170  00000-0  13939-3 0  9996
2 17527  99.1082 178.6816 0007976 335.2890  90.3631 14.02581319748789
Epoch (UTC): 09 May 2021 03:47:10
Eccentricity: 0.0007976
inclination: 99.1082°
perigee height: 879 km
apogee height: 890 km
right ascension of ascending node: 178.6816°
argument of perigee: 335.2890°
revolutions per day: 14.02581319
mean anomaly at epoch: 90.3631°
orbit number at epoch: 74878

The dashed part of the orbit path shows where the satellite is in the earth's shadow,  

DLR